Location: Newark
(25.6108°S, 54.5803°W)
Time: 07:41:24
(UTC+00:00)

Courier 1B - Pass Details

Date: 02 November 2020
Orbit: 962 x 1209 km, 28.3° (Epoch: 02 December)

Event Time Altitude Azimuth Distance (km) Brightness Sun altitude
Rises 04:11:13 0° 258° (WSW) 4,037 - -47.8°
Reaches altitude 10° 04:14:00 10° 257° (WSW) 3,100 - -47.6°
Maximum altitude 04:21:49 89° 171° (S) 1,210 - -47.0°
Drops below altitude 10° 04:29:45 10° 76° (ENE) 3,144 - -46.3°
Exits shadow 04:32:25 - 76° (ENE) 4,042 10.8 -46.0°
Sets 04:32:35 0° 76° (ENE) 4,097 10.9 -46.0°
